EW7239 Weather Reports


time (UTC)temp
C
wind
direction
speed
KPH
gust
KPH
rain 1hr
cm
rain 24hr
cm
rain mn
cm
humidity
%
barometer
mb
20260507112354 14 220 0.0 1.6 0.00 0.00 0.00 79 1016.3
20260507111852 14 220 0.0 3.2 0.00 0.00 0.00 79 1016.4
20260507111350 14 220 0.0 3.2 0.00 0.00 0.00 79 1016.4
20260507110845 14 220 0.0 1.6 0.00 0.00 0.00 79 1016.4
20260507110345 14 220 0.0 0.0 0.00 0.00 0.00 79 1016.4
20260507105341 14 220 0.0 1.6 0.00 0.00 0.00 79 1016.4
20260507104840 14 220 0.0 0.0 0.00 0.00 0.00 79 1016.5
20260507104341 14 220 0.0 1.6 0.00 0.00 0.00 79 1016.5
20260507103839 14 220 0.0 3.2 0.00 0.00 0.00 79 1016.5
20260507103338 14 220 0.0 3.2 0.00 0.00 0.00 80 1016.5
20260507102837 13 220 0.0 1.6 0.00 0.00 0.00 80 1016.5
20260507102608 13 220 0.0 0.0 0.00 0.00 0.00 79 1016.5
20260507101834 13 220 0.0 0.0 0.00 0.00 0.00 78 1016.6
20260507101334 13 220 0.0 0.0 0.00 0.00 0.00 78 1016.8
20260507100832 13 220 0.0 0.0 0.00 0.00 0.00 78 1016.6
20260507100333 14 220 0.0 0.0 0.00 0.00 0.00 79 1016.8
20260507095833 14 220 0.0 0.0 0.00 0.00 0.00 78 1016.8
20260507095333 14 220 0.0 0.0 0.00 0.00 0.00 77 1016.9
20260507094830 14 220 0.0 0.0 0.00 0.00 0.00 78 1016.9
20260507094330 14 220 0.0 0.0 0.00 0.00 0.00 78 1016.9
20260507093829 14 220 0.0 0.0 0.00 0.00 0.00 78 1016.9
20260507093324 14 220 0.0 0.0 0.00 0.00 0.00 78 1017.0
20260507092825 14 220 0.0 0.0 0.00 0.00 0.00 77 1017.1
20260507092325 14 220 0.0 0.0 0.00 0.00 0.00 77 1017.1
20260507091823 14 220 0.0 0.0 0.00 0.00 0.00 77 1017.1
20260507091335 14 220 0.0 0.0 0.00 0.00 0.00 77 1017.1
20260507091052 14 220 0.0 0.0 0.00 0.00 0.00 77 1017.2
20260507090318 14 220 0.0 1.6 0.00 0.00 0.00 76 1017.2
20260507085820 14 220 0.0 1.6 0.00 0.00 0.00 76 1017.3
20260507085317 15 220 0.0 1.6 0.00 0.00 0.00 76 1017.3
20260507084817 15 220 0.0 3.2 0.00 0.00 0.00 76 1017.4
20260507084318 14 220 0.0 3.2 0.00 0.00 0.00 76 1017.4
20260507083817 14 220 0.0 1.6 0.00 0.00 0.00 76 1017.4
20260507083317 15 220 0.0 1.6 0.00 0.00 0.00 76 1017.4
20260507082815 15 220 0.0 1.6 0.00 0.00 0.00 76 1017.5
20260507082313 15 220 0.0 3.2 0.00 0.00 0.00 75 1017.5
20260507081811 15 220 0.0 3.2 0.00 0.00 0.00 75 1017.5
20260507081309 15 220 0.0 1.6 0.00 0.00 0.00 75 1017.4
20260507080808 15 220 1.6 3.2 0.00 0.00 0.00 75 1017.5
20260507080306 15 220 1.6 3.2 0.00 0.00 0.00 74 1017.6
20260507075806 15 220 1.6 3.2 0.00 0.00 0.00 75 1017.5
20260507075307 15 220 1.6 3.2 0.00 0.00 0.00 74 1017.5
20260507074806 15 220 0.0 3.2 0.00 0.00 0.00 74 1017.5
20260507074302 15 220 0.0 3.2 0.00 0.00 0.00 74 1017.5
20260507073803 15 220 0.0 3.2 0.00 0.00 0.00 74 1017.4
20260507073302 15 220 1.6 4.8 0.00 0.00 0.00 74 1017.6
20260507073031 15 220 1.6 4.8 0.00 0.00 0.00 74 1017.5
20260507072301 15 220 0.0 3.2 0.00 0.00 0.00 74 1017.5
20260507071800 15 220 0.0 3.2 0.00 0.00 0.00 74 1017.6
20260507071301 15 220 1.6 3.2 0.00 0.00 0.00 74 1017.7
20260507071028 15 220 0.0 3.2 0.00 0.00 0.00 73 1017.7
20260507070529 15 220 0.0 3.2 0.00 0.00 0.00 73 1017.7
20260507065254 15 220 3.2 4.8 0.00 0.00 0.00 73 1017.8
20260507064754 16 220 3.2 4.8 0.00 0.00 0.00 73 1017.8
20260507064253 16 220 3.2 6.4 0.00 0.00 0.00 73 1017.8
20260507063751 16 220 3.2 6.4 0.00 0.00 0.00 72 1017.8
20260507063249 16 220 3.2 6.4 0.00 0.00 0.00 72 1017.8
20260507062750 16 220 1.6 4.8 0.00 0.00 0.00 71 1017.9
20260507062251 16 220 1.6 4.8 0.00 0.00 0.00 71 1017.8
20260507061750 16 220 1.6 4.8 0.00 0.00 0.00 71 1017.8
20260507061518 16 220 1.6 4.8 0.00 0.00 0.00 71 1017.8
20260507060746 16 220 1.6 4.8 0.00 0.00 0.00 71 1017.9
20260507060246 16 220 3.2 6.4 0.00 0.00 0.00 71 1017.9
20260507055742 16 220 3.2 6.4 0.00 0.00 0.00 71 1017.8
20260507055241 16 220 3.2 6.4 0.00 0.00 0.00 70 1017.9
20260507054742 16 220 3.2 6.4 0.00 0.00 0.00 70 1017.8
20260507054240 16 220 3.2 6.4 0.00 0.00 0.00 70 1017.8
20260507053738 16 220 3.2 6.4 0.00 0.00 0.00 69 1017.8
20260507053238 16 220 3.2 6.4 0.00 0.00 0.00 69 1017.7
20260507052737 17 220 4.8 6.4 0.00 0.00 0.00 69 1017.7
20260507052234 17 220 4.8 8.0 0.00 0.00 0.00 69 1017.7
20260507051735 17 220 4.8 8.0 0.00 0.00 0.00 69 1017.7
20260507051232 17 220 4.8 8.0 0.00 0.00 0.00 69 1017.6
20260507051002 17 220 3.2 8.0 0.00 0.00 0.00 69 1017.7
20260507050501 17 220 3.2 6.4 0.00 0.00 0.00 69 1017.6
20260507045729 17 220 3.2 4.8 0.00 0.00 0.00 68 1017.5
20260507045231 17 220 3.2 4.8 0.00 0.00 0.00 68 1017.5
20260507044728 17 220 4.8 8.0 0.00 0.00 0.00 68 1017.5
20260507044459 17 220 4.8 8.0 0.00 0.00 0.00 68 1017.4
20260507043725 17 220 3.2 6.4 0.00 0.00 0.00 68 1017.4
20260507043224 17 220 4.8 6.4 0.00 0.00 0.00 68 1017.4
20260507042725 17 220 4.8 8.0 0.00 0.00 0.00 67 1017.4
20260507042222 17 220 6.4 11.3 0.00 0.00 0.00 67 1017.4
20260507041722 17 220 6.4 11.3 0.00 0.00 0.00 67 1017.3
20260507041222 18 220 6.4 12.9 0.00 0.00 0.00 67 1017.3
20260507040722 18 220 6.4 12.9 0.00 0.00 0.00 66 1017.3
20260507040223 18 220 6.4 11.3 0.00 0.00 0.00 66 1017.2
20260507035721 18 220 8.0 14.5 0.00 0.00 0.00 66 1017.1
20260507035221 18 221 8.0 14.5 0.00 0.00 0.00 65 1017.0
20260507034719 18 220 8.0 14.5 0.00 0.00 0.00 65 1016.9
20260507034450 18 221 8.0 14.5 0.00 0.00 0.00 65 1016.9
20260507033718 18 220 8.0 14.5 0.00 0.00 0.00 65 1016.8
20260507033218 18 221 8.0 14.5 0.00 0.00 0.00 64 1016.8
20260507032718 18 223 8.0 14.5 0.00 0.00 0.00 64 1016.8
20260507032218 18 220 9.7 14.5 0.00 0.00 0.00 63 1016.6
20260507031718 19 222 8.0 17.7 0.00 0.00 0.00 63 1016.6
20260507031217 19 221 9.7 17.7 0.00 0.00 0.00 62 1016.5
20260507030717 19 221 9.7 16.1 0.00 0.00 0.00 62 1016.4
20260507030218 19 223 8.0 16.1 0.00 0.00 0.00 61 1016.4
20260507025716 20 223 8.0 16.1 0.00 0.00 0.00 60 1016.3
20260507025216 20 223 9.7 16.1 0.00 0.00 0.00 60 1016.3
20260507024717 20 229 8.0 16.1 0.00 0.00 0.00 59 1016.2
20260507024217 20 223 8.0 16.1 0.00 0.00 0.00 59 1016.2
20260507023717 20 219 8.0 14.5 0.00 0.00 0.00 58 1016.1
20260507023216 20 199 8.0 14.5 0.00 0.00 0.00 57 1016.1
20260507022716 21 232 9.7 16.1 0.00 0.00 0.00 57 1015.9
20260507022229 21 223 9.7 16.1 0.00 0.00 0.00 56 1015.9
20260507021714 21 211 9.7 17.7 0.00 0.00 0.00 56 1015.9
20260507021227 21 220 9.7 17.7 0.00 0.00 0.00 55 1015.9
20260507020945 21 221 9.7 19.3 0.00 0.00 0.00 55 1015.9
20260507020211 21 220 9.7 19.3 0.00 0.00 0.00 53 1015.7
20260507015710 22 225 9.7 19.3 0.00 0.00 0.00 54 1015.8
20260507015211 22 213 9.7 19.3 0.00 0.00 0.00 53 1015.8
20260507014708 22 212 11.3 17.7 0.00 0.00 0.00 52 1015.7
20260507014207 22 223 12.9 19.3 0.00 0.00 0.00 51 1015.6
20260507013709 22 228 11.3 19.3 0.00 0.00 0.00 51 1015.6
20260507013207 22 218 9.7 19.3 0.00 0.00 0.00 50 1015.6
20260507012709 23 213 9.7 17.7 0.00 0.00 0.00 49 1015.5
20260507012209 23 244 9.7 17.7 0.00 0.00 0.00 49 1015.4
20260507011707 23 230 8.0 16.1 0.00 0.00 0.00 49 1015.4
20260507011438 23 227 9.7 20.9 0.00 0.00 0.00 49 1015.4
20260507010719 23 236 11.3 24.1 0.00 0.00 0.00 50 1015.3
20260507010203 23 264 11.3 24.1 0.00 0.00 0.00 49 1015.3
20260507005701 23 241 12.9 25.7 0.00 0.00 0.00 49 1015.2
20260507005202 23 223 12.9 25.7 0.00 0.00 0.00 47 1015.2
20260507004701 24 217 11.3 20.9 0.00 0.00 0.00 47 1015.2
20260507004201 24 264 11.3 20.9 0.00 0.00 0.00 48 1015.1
20260507003703 24 229 11.3 20.9 0.00 0.00 0.00 48 1015.1
20260507003203 24 215 12.9 24.1 0.00 0.00 0.00 48 1015.1
20260507002700 24 266 12.9 24.1 0.00 0.00 0.00 48 1015.1
20260507002200 24 219 11.3 22.5 0.00 0.00 0.00 47 1015.1
20260507001701 25 219 11.3 19.3 0.00 0.00 0.00 46 1015.1
20260507001200 25 221 11.3 19.3 0.00 0.00 0.00 45 1015.0
20260507000700 25 227 11.3 22.5 0.00 0.00 0.00 46 1015.1
20260507000156 25 222 11.3 22.5 0.00 0.00 0.00 47 1015.0
20260506235657 25 204 12.9 24.1 0.00 0.00 0.00 46 1014.9
20260506235154 25 240 12.9 24.1 0.00 0.00 0.00 46 1014.9
20260506234655 25 215 12.9 25.7 0.00 0.00 0.00 46 1014.9
20260506234148 25 227 14.5 25.7 0.00 0.00 0.00 46 1014.9
20260506233648 25 219 14.5 25.7 0.00 0.00 0.00 45 1014.9
20260506233148 25 240 12.9 25.7 0.00 0.00 0.00 45 1014.8
20260506232648 26 219 11.3 22.5 0.00 0.00 0.00 43 1014.9
20260506232149 26 219 9.7 20.9 0.00 0.00 0.00 43 1015.0
20260506231648 26 242 9.7 20.9 0.00 0.00 0.00 43 1015.0
20260506231147 26 267 8.0 19.3 0.00 0.00 0.00 43 1014.9
20260506230916 25 256 9.7 19.3 0.00 0.00 0.00 43 1015.1
20260506230414 26 230 11.3 19.3 0.00 0.00 0.00 41 1015.2
20260506225643 26 232 9.7 17.7 0.00 0.00 0.00 43 1015.1
20260506225414 25 221 9.7 19.3 0.00 0.00 0.00 41 1015.2
20260506224639 26 221 11.3 20.9 0.00 0.00 0.00 40 1015.2
20260506224138 26 211 11.3 20.9 0.00 0.00 0.00 41 1015.3
20260506223638 26 232 11.3 20.9 0.00 0.00 0.00 41 1015.3
20260506223138 26 225 9.7 20.9 0.00 0.00 0.00 40 1015.4
20260506222638 26 265 9.7 19.3 0.00 0.00 0.00 41 1015.5
20260506222139 26 230 9.7 19.3 0.00 0.00 0.00 41 1015.5
20260506221638 26 248 9.7 19.3 0.00 0.00 0.00 41 1015.6
20260506221408 26 227 8.0 20.9 0.00 0.00 0.00 41 1015.6
20260506220635 26 227 8.0 20.9 0.00 0.00 0.00 41 1015.7
20260506220132 26 239 8.0 19.3 0.00 0.00 0.00 41 1015.8
20260506215906 25 271 8.0 17.7 0.00 0.00 0.00 42 1015.9
20260506215131 25 233 8.0 17.7 0.00 0.00 0.00 43 1016.0
20260506214631 25 208 8.0 17.7 0.00 0.00 0.00 42 1015.9
20260506214129 25 242 8.0 16.1 0.00 0.00 0.00 43 1016.0
20260506213629 25 252 8.0 19.3 0.00 0.00 0.00 43 1016.1
20260506213128 25 223 8.0 19.3 0.00 0.00 0.00 42 1016.2
20260506212629 25 237 6.4 17.7 0.00 0.00 0.00 43 1016.2
20260506212126 25 242 4.8 11.3 0.00 0.00 0.00 43 1016.2
20260506211626 25 254 6.4 19.3 0.00 0.00 0.00 44 1016.3
20260506211122 25 254 8.0 19.3 0.00 0.00 0.00 43 1016.5
20260506210620 25 268 6.4 16.1 0.00 0.00 0.00 44 1016.5
20260506210122 25 205 6.4 12.9 0.00 0.00 0.00 43 1016.5
20260506205621 25 258 6.4 12.9 0.00 0.00 0.00 43 1016.6
20260506205117 25 252 8.0 14.5 0.00 0.00 0.00 42 1016.8
20260506204849 25 265 4.8 14.5 0.00 0.00 0.00 42 1016.8
20260506204117 24 257 3.2 12.9 0.00 0.00 0.00 43 1016.9
20260506203614 24 240 4.8 9.7 0.00 0.00 0.00 43 1016.9
20260506203347 24 240 4.8 12.9 0.00 0.00 0.00 43 1017.0
20260506202613 23 221 4.8 12.9 0.00 0.00 0.00 44 1017.1
20260506202345 23 245 6.4 16.1 0.00 0.00 0.00 43 1017.1
20260506201613 23 225 4.8 16.1 0.00 0.00 0.00 43 1017.2
20260506201111 23 206 4.8 11.3 0.00 0.00 0.00 44 1017.3
20260506200842 23 204 4.8 12.9 0.00 0.00 0.00 43 1017.4
20260506200110 23 203 4.8 12.9 0.00 0.00 0.00 44 1017.4
20260506195614 23 222 4.8 11.3 0.00 0.00 0.00 45 1017.6
20260506195108 23 212 3.2 11.3 0.00 0.00 0.00 44 1017.6
20260506194608 23 205 3.2 11.3 0.00 0.00 0.00 43 1017.7
20260506194109 23 211 3.2 6.4 0.00 0.00 0.00 44 1017.8
20260506193608 22 211 1.6 6.4 0.00 0.00 0.00 44 1017.9
20260506193110 22 211 3.2 9.7 0.00 0.00 0.00 45 1017.9
20260506192607 22 211 3.2 9.7 0.00 0.00 0.00 46 1018.0
20260506192107 21 205 3.2 9.7 0.00 0.00 0.00 47 1018.0
20260506191605 21 203 3.2 9.7 0.00 0.00 0.00 45 1018.1
20260506191103 21 201 1.6 9.7 0.00 0.00 0.00 46 1018.1
20260506190604 21 201 3.2 6.4 0.00 0.00 0.00 46 1018.3
20260506190103 21 201 4.8 11.3 0.00 0.00 0.00 47 1018.3
20260506185601 21 201 6.4 11.3 0.00 0.00 0.00 48 1018.3
20260506185101 20 203 4.8 11.3 0.00 0.00 0.00 48 1018.4
20260506184832 21 229 4.8 12.9 0.00 0.00 0.00 47 1018.4
20260506184331 21 226 4.8 12.9 0.00 0.00 0.00 47 1018.5
20260506183600 21 207 4.8 12.9 0.00 0.00 0.00 48 1018.5
20260506183100 20 225 4.8 12.9 0.00 0.00 0.00 50 1018.6
20260506182600 20 229 4.8 9.7 0.00 0.00 0.00 49 1018.6
20260506182058 20 231 3.2 9.7 0.00 0.00 0.00 50 1018.6
20260506181559 20 232 4.8 9.7 0.00 0.00 0.00 50 1018.7
20260506181052 20 232 4.8 9.7 0.00 0.00 0.00 50 1018.8
20260506180553 20 232 4.8 9.7 0.00 0.00 0.00 51 1018.8
20260506180053 20 232 3.2 8.0 0.00 0.00 0.00 52 1018.7
20260506175553 19 232 4.8 8.0 0.00 0.00 0.00 52 1018.8
20260506175051 19 233 1.6 8.0 0.00 0.00 0.00 53 1018.8
20260506174551 18 233 1.6 6.4 0.00 0.00 0.00 55 1018.8
20260506174320 18 233 1.6 6.4 0.00 0.00 0.00 54 1018.7
20260506173820 18 233 3.2 11.3 0.00 0.00 0.00 54 1018.7
20260506173048 18 233 4.8 11.3 0.00 0.00 0.00 53 1018.8
20260506172545 18 233 3.2 11.3 0.00 0.00 0.00 54 1018.8
20260506172046 18 230 3.2 9.7 0.00 0.00 0.00 53 1018.8
20260506171544 18 231 3.2 9.7 0.00 0.00 0.00 54 1018.8
20260506171043 17 229 3.2 11.3 0.00 0.00 0.00 53 1018.8
20260506170543 17 229 3.2 11.3 0.00 0.00 0.00 53 1018.8
20260506170036 17 229 1.6 6.4 0.00 0.00 0.00 56 1018.8
20260506165537 17 229 3.2 8.0 0.00 0.00 0.00 58 1018.9
20260506165037 17 228 3.2 8.0 0.00 0.00 0.00 59 1018.9
20260506164535 17 229 3.2 8.0 0.00 0.00 0.00 59 1018.9
20260506164037 17 229 1.6 8.0 0.00 0.00 0.00 60 1018.9
20260506163535 17 229 1.6 6.4 0.00 0.00 0.00 61 1018.9
20260506163033 17 229 1.6 4.8 0.00 0.00 0.00 64 1018.9
20260506162533 17 230 1.6 4.8 0.00 0.00 0.00 65 1018.9
20260506162031 16 221 1.6 4.8 0.00 0.00 0.00 67 1018.9
20260506161802 16 221 1.6 4.8 0.00 0.00 0.00 68 1018.9
20260506161302 16 221 1.6 4.8 0.00 0.00 0.00 68 1018.9
20260506160800 16 221 3.2 8.0 0.00 0.00 0.00 68 1018.8
20260506160026 16 221 1.6 8.0 0.00 0.00 0.00 68 1018.9
20260506155525 16 221 0.0 6.4 0.00 0.00 0.00 69 1018.9
20260506155257 16 221 1.6 4.8 0.00 0.00 0.00 70 1018.9
20260506154526 15 221 1.6 6.4 0.00 0.00 0.00 70 1018.9
20260506154023 15 221 1.6 6.4 0.00 0.00 0.00 70 1018.9
20260506153521 15 221 1.6 6.4 0.00 0.00 0.00 70 1018.9
20260506153021 15 221 1.6 6.4 0.00 0.00 0.00 71 1018.9
20260506152519 15 221 1.6 4.8 0.00 0.00 0.00 72 1018.9
20260506152020 15 221 1.6 6.4 0.00 0.00 0.00 73 1018.9
20260506151519 15 221 1.6 6.4 0.00 0.00 0.00 74 1018.9
20260506151017 15 221 1.6 4.8 0.00 0.00 0.00 75 1019.0
20260506150515 15 221 0.0 6.4 0.00 0.00 0.00 77 1019.0
20260506145512 14 221 0.0 4.8 0.00 0.00 0.00 77 1018.9
20260506145244 14 221 1.6 4.8 0.00 0.00 0.00 78 1018.9
20260506144513 14 221 1.6 4.8 0.00 0.00 0.00 79 1018.9
20260506144010 13 221 1.6 4.8 0.00 0.00 0.00 80 1018.9
20260506143509 13 221 0.0 4.8 0.00 0.00 0.00 80 1018.9
20260506143006 13 221 0.0 3.2 0.00 0.00 0.00 81 1018.9
20260506142506 13 221 1.6 4.8 0.00 0.00 0.00 81 1018.9
20260506142007 13 221 0.0 4.8 0.00 0.00 0.00 82 1018.9
20260506141507 12 221 0.0 0.0 0.00 0.00 0.00 82 1018.8
20260506141001 12 221 0.0 0.0 0.00 0.00 0.00 83 1018.9
20260506140458 12 221 0.0 0.0 0.00 0.00 0.00 84 1018.8
20260506135959 12 221 0.0 0.0 0.00 0.00 0.00 83 1018.8
20260506135452 12 221 0.0 0.0 0.00 0.00 0.00 84 1018.8
20260506134953 12 221 0.0 0.0 0.00 0.00 0.00 84 1018.8
20260506134724 11 221 0.0 0.0 0.00 0.00 0.00 85 1018.7
20260506133953 11 221 0.0 0.0 0.00 0.00 0.00 85 1018.7
20260506133452 11 223 0.0 0.0 0.00 0.00 0.00 85 1018.6
20260506132953 11 223 0.0 0.0 0.00 0.00 0.00 85 1018.5
20260506132722 11 223 0.0 0.0 0.00 0.00 0.00 85 1018.5
20260506131949 11 223 0.0 0.0 0.00 0.00 0.00 85 1018.4
20260506131449 11 223 0.0 0.0 0.00 0.00 0.00 85 1018.3
20260506130944 11 223 0.0 0.0 0.00 0.00 0.00 85 1018.3
20260506130445 11 223 0.0 0.0 0.00 0.00 0.00 85 1018.2
20260506125946 11 223 0.0 0.0 0.00 0.00 0.00 85 1018.2
20260506125443 11 223 0.0 0.0 0.00 0.00 0.00 85 1018.2
20260506124940 10 223 0.0 0.0 0.00 0.00 0.00 85 1018.1
20260506124441 10 223 0.0 0.0 0.00 0.00 0.00 85 1018.0
20260506123935 10 223 0.0 0.0 0.00 0.00 0.00 84 1018.0
20260506123436 10 223 0.0 0.0 0.00 0.00 0.00 84 1018.0
20260506122934 10 223 0.0 0.0 0.00 0.00 0.00 84 1018.0
20260506122435 10 223 0.0 0.0 0.00 0.00 0.00 84 1018.0
20260506121934 10 223 0.0 0.0 0.00 0.00 0.00 84 1017.9
20260506121435 10 223 0.0 0.0 0.00 0.00 0.00 84 1017.9
20260506120935 10 223 0.0 0.0 0.00 0.00 0.00 84 1017.9
20260506120434 10 223 0.0 0.0 0.00 0.00 0.00 84 1017.8
20260506115934 10 223 0.0 0.0 0.00 0.00 0.00 84 1017.9
20260506115435 10 223 0.0 0.0 0.00 0.00 0.00 84 1017.9
20260506114934 10 223 0.0 0.0 0.00 0.00 0.00 84 1017.8
20260506114435 10 223 0.0 0.0 0.00 0.03 0.00 84 1017.8
20260506113934 10 223 0.0 0.0 0.00 0.03 0.00 84 1017.9
20260506113435 10 223 0.0 0.0 0.00 0.03 0.00 84 1017.9
20260506112934 10 223 0.0 0.0 0.00 0.03 0.00 83 1017.8